EW2129 Weather Reports


Display with metric or nautical units.
time (UTC)temp
F
wind
direction
speed
MPH
gust
MPH
rain 1hr
in
rain 24hr
in
rain mn
in
humidity
%
barometer
mb
20260503220009 53 360 6.0 10.0 0.00 0.00 0.00 70 1007.7
20260503214506 53 360 5.0 18.0 0.00 0.00 0.00 69 1008.0
20260503213006 53 360 9.0 17.0 0.00 0.00 0.00 67 1007.9
20260503211505 54 360 7.0 20.0 0.00 0.00 0.00 68 1007.8
20260503210005 54 360 7.0 17.0 0.00 0.00 0.00 67 1007.7
20260503204502 56 275 12.0 26.0 0.00 0.00 0.00 62 1007.8
20260503203001 59 360 11.0 25.0 0.00 0.00 0.00 51 1007.2
20260503201601 60 360 16.0 29.0 0.00 0.00 0.00 48 1007.3
20260503200105 58 360 10.0 24.0 0.00 0.00 0.00 52 1007.6
20260503194556 58 202 11.0 20.0 0.00 0.02 0.00 51 1007.6
20260503193107 59 273 15.0 23.0 0.00 0.02 0.00 49 1007.8
20260503191603 61 360 13.0 22.0 0.00 0.02 0.00 48 1007.8
20260503190050 60 360 10.0 21.0 0.00 0.02 0.00 50 1008.0
20260503184647 60 199 13.0 22.0 0.00 0.06 0.00 49 1008.1
20260503183102 60 360 12.0 20.0 0.00 0.06 0.00 48 1008.4
20260503181603 60 360 10.0 26.0 0.00 0.06 0.00 48 1008.7
20260503180043 58 265 7.0 20.0 0.00 0.06 0.00 48 1008.8
20260503174536 60 360 13.0 20.0 0.00 0.06 0.00 46 1009.0
20260503173033 59 204 10.0 23.0 0.00 0.06 0.00 46 1009.2
20260503171530 58 360 11.0 25.0 0.00 0.06 0.00 46 1009.4
20260503100104 34 179 5.0 9.0 0.00 0.06 0.00 80 1012.1
20260503081533 35 360 3.0 6.0 0.00 0.06 0.06 72 1012.8
20260503071529 34 360 4.0 9.0 0.00 0.06 0.06 66 1013.0
20260503054515 34 360 2.0 5.0 0.00 0.06 0.06 67 1013.5
20260503053012 34 360 2.0 4.0 0.00 0.06 0.06 69 1013.6
20260503051515 34 360 1.0 4.0 0.00 0.06 0.06 71 1013.6
20260503050017 34 360 1.0 3.0 0.00 0.06 0.06 71 1013.7
20260503044512 35 360 1.0 4.0 0.00 0.06 0.06 71 1013.7
20260503043043 35 360 1.0 4.0 0.00 0.06 0.06 70 1013.8
20260503041539 36 360 2.0 5.0 0.00 0.06 0.06 70 1013.9
20260503040041 36 360 2.0 6.0 0.00 0.06 0.06 70 1013.9
20260503034537 36 360 1.0 5.0 0.00 0.06 0.06 71 1013.9
20260503033042 36 360 2.0 5.0 0.00 0.06 0.06 71 1013.9
20260503031534 36 199 2.0 6.0 0.00 0.06 0.06 70 1014.0
20260503030006 36 360 2.0 4.0 0.00 0.06 0.06 70 1014.1
20260503024503 37 360 2.0 4.0 0.00 0.06 0.06 70 1014.1
20260503023102 37 360 2.0 4.0 0.00 0.06 0.06 69 1014.2
20260503021559 37 360 2.0 5.0 0.00 0.06 0.06 69 1014.3
20260503020057 38 360 1.0 4.0 0.00 0.06 0.06 69 1014.2
20260503014556 38 360 1.0 4.0 0.00 0.06 0.06 68 1014.1
20260503013102 39 263 1.0 3.0 0.00 0.06 0.06 67 1014.2
20260503011606 40 265 1.0 4.0 0.00 0.06 0.06 66 1014.2
20260503010119 41 266 0.0 3.0 0.00 0.06 0.06 65 1014.2
20260503004552 41 267 1.0 3.0 0.00 0.06 0.06 63 1014.1
20260503003052 42 267 1.0 4.0 0.00 0.06 0.06 61 1014.0
20260503001550 42 274 2.0 4.0 0.00 0.06 0.06 59 1013.9
20260503000050 42 291 0.0 5.0 0.00 0.06 0.06 59 1014.0
20260502234548 42 290 1.0 5.0 0.00 0.06 0.06 58 1013.9
20260502233048 43 274 3.0 7.0 0.00 0.06 0.06 58 1014.0
20260502231547 43 279 3.0 9.0 0.00 0.06 0.06 59 1014.0
20260502230046 43 269 6.0 11.0 0.00 0.06 0.06 59 1013.9
20260502224544 43 322 4.0 9.0 0.00 0.06 0.06 59 1014.0
20260502223047 44 289 5.0 11.0 0.00 0.06 0.06 59 1013.9
20260502221546 44 304 4.0 12.0 0.00 0.06 0.06 57 1013.8
20260502220041 44 296 3.0 9.0 0.00 0.06 0.06 57 1013.6